Weather History for The Villages, FL

Change the Weather History Date:

Sunday, January 6, 2013

  Actual Average (KLEE) Record (KLEE)
Temperature  
Mean Temperature 68 °F -  
Max Temperature 78 °F 68 °F 84 °F (1960)
Min Temperature 57 °F 48 °F 28 °F (1999)
Cooling Degree Days 2    
Growing Degree Days 18 (Base 50)    
Moisture  
Dew Point 59 °F    
Average Humidity 82    
Maximum Humidity 94    
Minimum Humidity 57    
Precipitation  
Precipitation 0.00 in - - ()
Sea Level Pressure  
Sea Level Pressure 30.16 in    
Wind  
Wind Speed 2 mph (North)    
Max Wind Speed 12 mph    
Max Gust Speed -    
Visibility 9 miles    
Events      
Averages and records for this station are not official NWS values.
T = Trace of Precipitation, MM = Missing Value Source: NWS Daily Summary

Daily Weather History Graph

Daily Weather History Graph

Search for Another Location

Airport:

Trip Planner

Search our weather history database for the weather conditions in past years. The results will help you decide how hot, cold, wet, or windy it might be!

Date:

Astronomy

Jan. 06, 2013 Rise Set
Actual Time 7:22 AM EST 5:45 PM EST
Civil Twilight 6:56 AM EST 6:11 PM EST
Nautical Twilight 6:27 AM EST 6:40 PM EST
Astronomical Twilight 5:58 AM EST 7:09 PM EST
Moon 1:45 AM EST (1/6) 1:03 PM EST (1/6)
Length of Visible Light 11h 14m
Length of Day
10h 23m
Waning Crescent, 33% of the Moon is Illuminated
Jan 6
Waning Crescent
Jan 11
New
Jan 18
First Quarter
Jan 26
Full
Feb 3
Last Quarter

Hourly Weather History & Observations

Time (EST) Temp. Dew Point Humidity Pressure Visibility Wind Dir Wind Speed Gust Speed Precip Events Conditions
12:15 AM 60.8 °F 55.4 °F 82% 30.24 in 10.0 mi Calm Calm - N/A   Unknown
12:35 AM 60.8 °F 55.4 °F 82% 30.22 in 10.0 mi Calm Calm - N/A   Unknown
1:15 AM 60.8 °F 55.4 °F 82% 30.21 in 9.0 mi Calm Calm - N/A   Unknown
1:35 AM 60.8 °F 55.4 °F 82% 30.21 in 10.0 mi Calm Calm - N/A   Unknown
1:55 AM 60.8 °F 55.4 °F 82% 30.20 in 10.0 mi NNE 5.8 mph - N/A   Unknown
2:15 AM 60.8 °F 55.4 °F 82% 30.20 in 10.0 mi Calm Calm - N/A   Unknown
2:35 AM 60.8 °F 55.4 °F 82% 30.20 in 10.0 mi NNE 3.5 mph - N/A   Unknown
2:55 AM 60.8 °F 55.4 °F 82% 30.20 in 10.0 mi Calm Calm - N/A   Unknown
3:15 AM 60.8 °F 55.4 °F 82% 30.19 in 10.0 mi Calm Calm - N/A   Unknown
3:55 AM 59.0 °F 55.4 °F 88% 30.17 in 10.0 mi Calm Calm - N/A   Unknown
4:15 AM 57.2 °F 55.4 °F 94% 30.18 in 10.0 mi Calm Calm - N/A   Unknown
4:35 AM 59.0 °F 55.4 °F 88% 30.17 in 10.0 mi Calm Calm - N/A   Unknown
4:55 AM 59.0 °F 55.4 °F 88% 30.16 in 10.0 mi Calm Calm - N/A   Unknown
5:15 AM 57.2 °F 55.4 °F 94% 30.16 in 10.0 mi ENE 3.5 mph - N/A   Unknown
5:35 AM 57.2 °F 55.4 °F 94% 30.16 in 9.0 mi Calm Calm - N/A   Unknown
5:55 AM 57.2 °F 55.4 °F 94% 30.15 in 10.0 mi East 3.5 mph - N/A   Unknown
6:15 AM 57.2 °F 55.4 °F 94% 30.16 in 10.0 mi Calm Calm - N/A   Unknown
6:35 AM 57.2 °F 55.4 °F 94% 30.16 in 10.0 mi Calm Calm - N/A   Unknown
6:55 AM 57.2 °F 55.4 °F 94% 30.16 in 10.0 mi Calm Calm - N/A   Unknown
7:15 AM 57.2 °F 55.4 °F 94% 30.17 in 10.0 mi Calm Calm - N/A   Unknown
7:35 AM 57.2 °F 55.4 °F 94% 30.18 in 9.0 mi Calm Calm - N/A   Unknown
7:55 AM 59.0 °F 55.4 °F 88% 30.18 in 7.0 mi Calm Calm - N/A   Unknown
8:15 AM 59.0 °F 55.4 °F 88% 30.18 in 7.0 mi Calm Calm - N/A   Unknown
8:55 AM 60.8 °F 55.4 °F 82% 30.18 in 8.0 mi Calm Calm - N/A   Unknown
9:35 AM 60.8 °F 59.0 °F 94% 30.20 in 4.0 mi Calm Calm - N/A   Mist
9:55 AM 62.6 °F 60.8 °F 94% 30.20 in 5.0 mi ENE 3.5 mph - N/A   Mist
10:15 AM 62.6 °F 60.8 °F 94% 30.20 in 3.0 mi Calm Calm - N/A   Mist
10:35 AM 64.4 °F 60.8 °F 88% 30.19 in 6.0 mi Calm Calm - N/A   Mist
10:55 AM 64.4 °F 60.8 °F 88% 30.19 in 8.0 mi Calm Calm - N/A   Unknown
11:15 AM 69.8 °F 62.6 °F 78% 30.17 in 9.0 mi Calm Calm - N/A   Unknown
11:35 AM 71.6 °F 62.6 °F 73% 30.17 in 10.0 mi East 3.5 mph - N/A   Unknown
11:55 AM 71.6 °F 62.6 °F 73% 30.16 in 10.0 mi SSW 3.5 mph - N/A   Unknown
12:15 PM 73.4 °F 62.6 °F 69% 30.15 in 10.0 mi West 4.6 mph - N/A   Unknown
12:35 PM 75.2 °F 62.6 °F 65% 30.14 in 10.0 mi SW 4.6 mph - N/A   Unknown
12:55 PM 75.2 °F 64.4 °F 69% 30.12 in 10.0 mi SSW 3.5 mph - N/A   Unknown
1:15 PM 77.0 °F 64.4 °F 65% 30.11 in 10.0 mi South 5.8 mph - N/A   Unknown
1:35 PM 77.0 °F 64.4 °F 65% 30.10 in 10.0 mi South 3.5 mph - N/A   Unknown
1:55 PM 78.8 °F 62.6 °F 57% 30.09 in 10.0 mi Calm Calm - N/A   Unknown
2:35 PM 78.8 °F 62.6 °F 57% 30.08 in 10.0 mi WSW 6.9 mph - N/A   Unknown
2:55 PM 78.8 °F 62.6 °F 57% 30.08 in 10.0 mi West 8.1 mph - N/A   Unknown
3:15 PM 75.2 °F 64.4 °F 69% 30.09 in 10.0 mi WNW 11.5 mph - N/A   Unknown
3:55 PM 73.4 °F 64.4 °F 73% 30.08 in 10.0 mi Calm Calm - N/A   Unknown
4:15 PM 73.4 °F 64.4 °F 73% 30.09 in 10.0 mi Calm Calm - N/A   Unknown
4:35 PM 73.4 °F 64.4 °F 73% 30.09 in 10.0 mi Calm Calm - N/A   Unknown
4:55 PM 73.4 °F 64.4 °F 73% 30.10 in 10.0 mi WNW 4.6 mph - N/A   Unknown
5:15 PM 73.4 °F 64.4 °F 73% 30.10 in 10.0 mi West 5.8 mph - N/A   Unknown
5:35 PM 73.4 °F 64.4 °F 73% 30.11 in 10.0 mi Calm Calm - N/A   Unknown
5:55 PM 73.4 °F 64.4 °F 73% 30.11 in 10.0 mi Calm Calm - N/A   Unknown
6:15 PM 71.6 °F 64.4 °F 78% 30.11 in 10.0 mi NNW 4.6 mph - N/A   Unknown
6:55 PM 69.8 °F 62.6 °F 78% 30.12 in 10.0 mi North 5.8 mph - N/A   Unknown
7:15 PM 69.8 °F 62.6 °F 78% 30.13 in 10.0 mi NNW 6.9 mph - N/A   Unknown
7:35 PM 68.0 °F 62.6 °F 83% 30.13 in 10.0 mi North 10.4 mph - N/A   Unknown
7:55 PM 66.2 °F 60.8 °F 83% 30.13 in 10.0 mi North 8.1 mph - N/A   Unknown
8:15 PM 64.4 °F 60.8 °F 88% 30.13 in 9.0 mi North 5.8 mph - N/A   Light Drizzle
8:55 PM 62.6 °F 59.0 °F 88% 30.15 in 10.0 mi North 9.2 mph - N/A   Unknown
9:15 PM 62.6 °F 59.0 °F 88% 30.16 in 10.0 mi North 6.9 mph - N/A   Unknown
9:35 PM 62.6 °F 57.2 °F 82% 30.17 in 10.0 mi North 10.4 mph - N/A   Light Drizzle
9:55 PM 60.8 °F 57.2 °F 88% 30.18 in 10.0 mi NNE 8.1 mph - N/A   Unknown
10:35 PM 60.8 °F 57.2 °F 88% 30.19 in 10.0 mi North 8.1 mph - N/A   Unknown
10:55 PM 60.8 °F 57.2 °F 88% 30.20 in 10.0 mi North 8.1 mph - N/A   Unknown
11:15 PM 60.8 °F 57.2 °F 88% 30.18 in 10.0 mi North 6.9 mph - N/A   Unknown
11:35 PM 59.0 °F 57.2 °F 94% 30.18 in 9.0 mi NNE 5.8 mph - N/A   Unknown
11:55 PM 59.0 °F 57.2 °F 94% 30.17 in 9.0 mi NNE 6.9 mph - N/A   Unknown